Regional Weather Roundup
Issued by NWS

Home | Current Version | Previous Version | Text Only | Print | Product List | Glossary Off
Versions: 1 2 3 4 5 6 7 8 9 10 11 12 13 14 15 16 17 18 19 20 21 22 23 24 25 26 27 28 29 30 31 32 33 34 35 36 37 38 39 40 41 42 43 44 45 46 47 48 49 50

718
ASUS43 KLMK 101610
RWRKY
KENTUCKY REGIONAL WEATHER ROUNDUP
NATIONAL WEATHER SERVICE LOUISVILLE KY
1100 AM EST WED FEB 10 2016

NOTE "FAIR" INDICATES FEW OR NO CLOUDS BELOW 12,000 FEET
WITH NO SIGNIFICANT WEATHER AND/OR OBSTRUCTIONS TO VISIBILITY.

KYZ001>023-026-027-061>063-070>075-101700-
WESTERN AND SOUTH CENTRAL KENTUCKY

CITY           SKY/WX    TMP DP  RH WIND       PRES   REMARKS
PADUCAH        SUNNY     22   8  55 W10       30.23S WCI  11
HENDERSON      MOSUNNY   19   7  58 W14       30.20R WCI   6
OWENSBORO      PTSUNNY   19   7  60 NW9G16    30.20R WCI   8
HOPKINSVILLE   SUNNY     20   9  64 W12       30.21R WCI   8
BOWLING GREEN  CLOUDY    20   8  60 W10       30.19R WCI   9
GLASGOW        LGT SNOW  18  11  73 W10       30.16R WCI   7
$$

KYZ024-025-028>034-038-045-046-053-101700-
NORTH CENTRAL KENTUCKY

CITY           SKY/WX    TMP DP  RH WIND       PRES   REMARKS
LOUISVILLE/SDF FLURRIES  18   6  59 W17       30.13R WCI   3
LOUISVILLE/LOU CLOUDY    17   6  62 W16       30.13R WCI   2
FORT KNOX      FLURRIES  16   5  62 W15       30.11R WCI   1
$$

KYZ035>037-039>044-047>052-055>060-089>105-101700-
NORTHEAST KENTUCKY

CITY           SKY/WX    TMP DP  RH WIND       PRES   REMARKS
LEXINGTON      LGT SNOW  17  10  74 W12       30.05R WCI   4
COVINGTON      LGT SNOW  16   9  74 W15       30.01R BLWGSNOWWCI   1
FRANKFORT      LGT SNOW  17   8  67 W14G21    30.07R WCI   3
$$

KYZ054-064>069-076>088-106>120-101700-
SOUTHEAST KENTUCKY

CITY           SKY/WX    TMP DP  RH WIND       PRES   REMARKS
JACKSON        LGT SNOW  19  11  70 CALM      30.00R
LONDON         CLOUDY    18   7  62 W13       30.04S WCI   5
SOMERSET       CLOUDY    19  10  68 W14G20    30.11R WCI   6
MIDDLESBORO    CLOUDY    21  10  64 W10       30.07R WCI   9
MONTICELLO     FLURRIES  17   8  67 W15G25    30.13R WCI   2
$$





USA.gov is the U.S. government's official web portal to all federal, state and local government web resources and services.